Accueil
METAR-TAF:

METAR-TAF

Aéroports :

Melun, France

Aérodrome de Melun-Villaroche

latitude: 48-37N, longitude: 002-41E, altitude: 95 m

Observation

Le bulletin a été fait il y a 31 minutes, à 22:30 UTC
Vent 3 kt de sud
Température 16°C
Humidité 72%
Pression 1024 hPa
Visibilité 10 km ou plus
pas de nuages en-dessous de 1500 mètres et pas de cumulonimbus.

METAR: LFPM 202230Z AUTO 18003KT CAVOK 16/11 Q1024

Heure: 01:01 (23:01 UTC)


TAF: absent

Observations et prévisions météorologiques de plus de 4000 aéroports (messages METAR et TAF).

Les stations disponibles sont représentées par des disques jaunes et rouges sur la carte.

Passer la souris dessus pour voir le nom de la station.

Cliquer dessus pour voir les observations et prévisions météorologiques.

Pour changer de carte: cliquez sur les boutons verts avec une croix noire pour zoomer, sur le bouton vert avec un tiret pour effectuer un zoom arrière, ou sur les flèches vertes pour les cartes adjacentes.


METAR-TAF: